Location: Putah Creek Observatory
(38.7021°N, 122.3865°W)
Time: 23:26:27
(UTC-07:00)

ISS - Pass Details

Date: 26 March 2019
Orbit: 408 x 410 km, 51.6° (Epoch: 22 April)

Event Time Altitude Azimuth Distance (km) Brightness Sun altitude
Rises 20:39:48 0° 283° (WNW) 2,333 2.0 -14.8°
Reaches altitude 10° 20:42:45 10° 312° (NW) 1,473 0.0 -15.3°
Maximum altitude 20:44:26 13° 343° (NNW) 1,293 -0.8 -15.6°
Drops below altitude 10° 20:46:07 10° 13° (NNE) 1,474 -1.0 -15.9°
Enters shadow 20:47:41 - 32° (NNE) 1,880 -0.6 -16.2°
